Location: Gwatt
(46.7204°N, 7.6223°E)
Time: 13:54:43
(UTC+00:00)

S-56A Canister/Altair - Pass Details

Date: 29 January 2021
Orbit: 632 x 2501 km, 38.9° (Epoch: 28 February)

Event Time Altitude Azimuth Distance (km) Brightness Sun altitude
Rises 00:20:03 0° 229° (SW) 3,533 - -60.2°
Reaches altitude 10° 00:23:21 10° 215° (SW) 2,358 - -60.0°
Maximum altitude 00:27:24 22° 164° (SSE) 1,473 - -59.8°
Drops below altitude 10° 00:30:55 10° 112° (ESE) 2,029 - -59.5°
Sets 00:33:31 0° 97° (E) 2,914 - -59.3°
